Volver al catálogo

SL-8 R/B

ActivoPO
NORAD 21153·ROCKET BODY·🇷🇺 Russia

Lanzado Mar 12, 1991 desde Plesetsk Cosmodrome

Loading…

Próximos Pases (próximas 24 horas)

TLE

ActualizadoSource: Space-Track

Época: Sep 14, 2026, 08:06 UTC

1 21153U 91019B   26257.33760565  .00000005  00000-0 -11089-4 0  9998
2 21153  82.9257 210.6346 0030481  78.0917  74.2697 13.76367805782713

Sigue SL-8 R/B en tiempo real con AllMySat

Download on the App Store